Location: ?
(35.4554°N, 139.3092°E)
Time: 22:44:49
(UTC+00:00)

Cosmos 1733 - Pass Details

Date: 21 April 2021
Orbit: 503 x 522 km, 82.5° (Epoch: 10 May)

Event Time Altitude Azimuth Distance (km) Brightness Sun altitude
Rises 18:16:52 0° 348° (NNW) 2,608 7.0 -20.4°
Reaches altitude 10° 18:19:01 10° 344° (NNW) 1,718 6.0 -20.0°
Maximum altitude 18:22:42 56° 266° (W) 604 3.1 -19.3°
Enters shadow 18:22:44 56° 263° (W) 604 3.1 -19.3°
